Home > Time Zones > World Clock > Weather > Macau > Macau > Past weeks

Flag for Macau Weather past 2 weeks in Macau, Macau

Now
91 °F

Passing clouds.


Feels Like: 108 °F
Forecast: 85 / 90 °F
Wind: 10 mph from West

Location: Taipa

Current Time: Jul 23, 2014 at 2:37:03 PM

Latest Report: Jul 23, 2014 at 1:00 PM


Visibility: N/A

Pressure: 29.50 "Hg

Humidity: 67%

Dew point: 79 °F

Location of MacauLocation

Historic Weather in Macau — Graph

°F

Macau temperature yesterday

Maximum temperature yesterday: 93 °F (at 12:30 PM)
Minimum temperature yesterday: 82 °F (at 6:00 AM)
Average temperature yesterday: 87 °F

Past Weeks' High & Low Weather Summary

 TemperatureHumidityPressure
High93 °F (Jul 22, 12:30 PM)100% (Jul 10, 8:30 AM)29.83 "Hg (Jul 10, 8:30 AM)
Low79 °F (Jul 10, 5:30 AM)56% (Jul 22, 12:30 PM)29.47 "Hg (Jul 8, 2:00 PM)
Average86 °F80%29.68 "Hg
* Reported Jul 8 1:00 PM — Jul 23 1:00 PM, Macau, Weather by CustomWeather, © 2014

Note: Actual official high and low records may vary slightly from our data, if they occured in-between our weather recording intervals... More about our weather records

Advertising

Macau weather history for previous 24 hours

 ConditionsComfort  
Time TempWeatherWind HumidityBarometerVisibility
1:00 PM
Jul 23
91 °FPassing clouds.10 mph67%29.50 "HgN/A
12:30 PM91 °FPassing clouds.12 mph67%29.53 "HgN/A
12:00 PM91 °FPassing clouds.13 mph63%29.53 "HgN/A
11:30 AM91 °FPassing clouds.12 mph67%29.56 "HgN/A
11:00 AM90 °FPassing clouds.9 mph71%29.56 "HgN/A
10:30 AM88 °FPassing clouds.7 mph70%29.56 "HgN/A
10:00 AM88 °FPassing clouds.8 mph70%29.56 "HgN/A
9:30 AM88 °FPassing clouds.12 mph70%29.53 "HgN/A
9:00 AM88 °FPassing clouds.13 mph70%29.56 "HgN/A
8:30 AM88 °FPassing clouds.8 mph70%29.53 "HgN/A
8:00 AM86 °FPassing clouds.5 mph75%29.56 "HgN/A
7:00 AM84 °FPassing clouds.2 mph79%29.56 "HgN/A
12:30 AM86 °FPassing clouds.10 mph79%29.53 "HgN/A
12:00 AM86 °FPassing clouds.13 mph79%29.56 "HgN/A
11:30 PM
Jul 22
86 °FPassing clouds.13 mph79%29.56 "HgN/A
11:00 PM88 °FPassing clouds.13 mph75%29.56 "HgN/A
10:30 PM88 °FClear.13 mph75%29.56 "Hg10 mi
10:00 PM88 °FClear.12 mph75%29.56 "Hg10 mi
9:30 PM88 °FPassing clouds.7 mph75%29.56 "HgN/A
9:00 PM88 °FPassing clouds.6 mph75%29.56 "HgN/A
8:30 PM88 °FClear.7 mph79%29.56 "Hg10 mi
8:00 PM88 °FClear.9 mph75%29.56 "Hg10 mi
7:30 PM88 °FPassing clouds.7 mph70%29.53 "HgN/A
7:00 PM88 °FPassing clouds.5 mph66%29.53 "HgN/A
6:30 PM88 °FPassing clouds.6 mph70%29.50 "HgN/A
6:00 PM88 °FPassing clouds.10 mph66%29.50 "HgN/A
5:30 PM86 °FPassing clouds.14 mph70%29.47 "HgN/A
5:00 PM88 °FPassing clouds.15 mph62%29.50 "HgN/A
4:30 PM90 °FScattered clouds.12 mph59%29.53 "HgN/A
4:00 PM90 °FScattered clouds.13 mph71%29.53 "HgN/A
3:30 PM90 °FPassing clouds.12 mph71%29.53 "HgN/A
3:00 PM91 °FPassing clouds.10 mph67%29.53 "HgN/A
2:30 PM90 °FPassing clouds.13 mph71%29.56 "HgN/A
2:00 PM91 °FPassing clouds.10 mph71%29.56 "HgN/A
Weather by CustomWeather, © 2014

See weather overviewHow to use our weather pages